Weather History for Hurghada, Egypt

Change the Weather History Date:

Friday, September 20, 2013

  Actual Average Record
Temperature  
Mean Temperature 90 °F -  
Max Temperature 101 °F 87 °F 101 °F (2013)
Min Temperature 80 °F 73 °F 75 °F (2001)
Cooling Degree Days 26    
Growing Degree Days 40 (Base 50)    
Moisture  
Dew Point 58 °F    
Average Humidity 33    
Maximum Humidity 55    
Minimum Humidity 14    
Precipitation  
Precipitation 0.00 in - - ()
Sea Level Pressure  
Sea Level Pressure 29.80 in    
Wind  
Wind Speed 11 mph ()    
Max Wind Speed 30 mph    
Max Gust Speed -    
Visibility 4.0 miles    
Events      
Averages and records for this station are not official NWS values.
T = Trace of Precipitation, MM = Missing Value Source: Averaged Metar Reports

Daily Weather History Graph

Daily Weather History Graph

Search for Another Location

Airport:

Trip Planner

Search our weather history database for the weather conditions in past years. The results will help you decide how hot, cold, wet, or windy it might be!

Date:

Astronomy

Sep. 20, 2013 Rise Set
Actual Time 5:32 AM EET 5:43 PM EET
Civil Twilight 5:09 AM EET 6:06 PM EET
Nautical Twilight 4:41 AM EET 6:33 PM EET
Astronomical Twilight 4:14 AM EET 7:01 PM EET
Moon 6:16 PM EET 6:16 AM EET
Length of Visible Light 12h 57m
Length of Day
12h 11m
Full, 99% of the Moon is Illuminated
Sep 20
Full
Sep 27
Last Quarter
Oct 5
New
Oct 12
First Quarter
Oct 19
Full

Hourly Weather History & Observations

Time (EET) Temp. Heat Index Dew Point Humidity Pressure Visibility Wind Dir Wind Speed Gust Speed Precip Events Conditions
12:00 AM 84.2 °F - 44.6 °F 25% 29.77 in - Calm Calm - N/A   Clear
1:00 AM 86.0 °F - 42.8 °F 22% 29.74 in - Calm Calm - N/A   Clear
2:00 AM 85 °F - 44 °F 14% 29.76 in 6 mi Calm Calm - -  
2:00 AM 84.2 °F - 44.6 °F 25% 29.74 in - Calm Calm - N/A   Clear
3:00 AM 82.4 °F - 44.6 °F 26% 29.77 in - Calm Calm - N/A   Clear
4:00 AM 82.4 °F - 44.6 °F 26% 29.77 in - Calm Calm - N/A   Clear
5:00 AM 80.6 °F - 44.6 °F 28% 29.77 in - Calm Calm - N/A   Clear
6:00 AM 84.2 °F - 51.8 °F 33% 29.80 in - Calm Calm - N/A   Clear
7:00 AM 87.8 °F 90.4 °F 66.2 °F 49% 29.83 in - North 18.4 mph - N/A   Clear
8:00 AM 88 °F - 71 °F 47% 29.84 in 6 mi NNW 20.7 mph - -  
8:00 AM 87.8 °F 92.6 °F 69.8 °F 55% 29.83 in 3.7 mi NNW 20.7 mph - N/A   Unknown
9:00 AM 91.4 °F 96.8 °F 69.8 °F 49% 29.83 in 3.7 mi North 20.7 mph - N/A   Unknown
10:00 AM 93.2 °F 102.4 °F 73.4 °F 52% 29.83 in 2.5 mi North 26.5 mph - N/A   Sand
11:00 AM 96.8 °F 103.1 °F 69.8 °F 41% 29.83 in 2.5 mi North 27.6 mph - N/A   Sand
12:00 PM 98.6 °F 102.8 °F 66.2 °F 35% 29.80 in 2.5 mi North 23.0 mph - N/A   Sand
1:00 PM 100.4 °F 103.6 °F 64.4 °F 31% 29.77 in 3.7 mi North 26.5 mph - N/A   Unknown
2:00 PM 100 °F - 63 °F 20% 29.77 in 4 mi North 26.5 mph - -   Blowing Sand
2:00 PM 100.4 °F 102.4 °F 62.6 °F 29% 29.74 in 3.7 mi North 26.5 mph - N/A   Unknown
3:00 PM 100.4 °F 100.2 °F 59.0 °F 25% 29.77 in - North 27.6 mph - N/A   Clear
4:00 PM 100.4 °F 100.2 °F 59.0 °F 25% 29.74 in - North 26.5 mph - N/A   Clear
5:00 PM 96.8 °F 97.1 °F 60.8 °F 30% 29.77 in - NNW 25.3 mph - N/A   Clear
6:00 PM 93.2 °F 93.3 °F 60.8 °F 34% 29.77 in - NNW 23.0 mph - N/A   Clear
7:00 PM 91.4 °F 91.4 °F 60.8 °F 36% 29.83 in - NW 28.8 mph - N/A   Clear
8:00 PM 91 °F - 57 °F 22% 29.85 in 6 mi NW 29.9 mph - -  
8:00 PM 91.4 °F 89.9 °F 57.2 °F 31% 29.83 in - NW 29.9 mph - N/A   Clear
9:00 PM 89.6 °F 88.1 °F 57.2 °F 33% 29.86 in - NW 17.3 mph - N/A   Clear
10:00 PM 87.8 °F 87.1 °F 59.0 °F 38% 29.86 in - WNW 11.5 mph - N/A   Clear
11:00 PM 87.8 °F 87.1 °F 59.0 °F 38% 29.86 in - NNW 13.8 mph - N/A   Clear